Location: Long Geng
(2.6167°N, 114.1333°E)
Time: 01:38:11
(UTC+00:00)

Cosmos 2208 Rocket - Pass Details

Date: 14 May 2021
Orbit: 753 x 806 km, 74.0° (Epoch: 19 June)

Event Time Altitude Azimuth Distance (km) Brightness Sun altitude
Rises 12:10:41 0° 343° (NNW) 3,305 7.8 -25.2°
Reaches altitude 10° 12:13:06 10° 340° (NNW) 2,376 7.0 -25.7°
Maximum altitude 12:18:29 68° 258° (WSW) 862 4.3 -27.0°
Enters shadow 12:19:41 51° 200° (SSW) 995 4.4 -27.2°
